Location: Northam
(31.6525°S, 116.6655°E)
Time: 08:47:46
(UTC+08:00)

AAUSAT CUBESAT 2 - Visible Passes

Search period start: 26 July 2021 00:00
Search period end: 05 August 2021 00:00
Orbit: 571 x 589 km, 97.5° (Epoch: 25 July)

Date Brightness Start Highest point End Pass type
(mag) Time Alt. Az. Time Alt. Az. Time Alt. Az.
26 Jul ? 04:40:33 10° NNE 04:41:41 18° NNE 04:41:41 18° NNE visible
26 Jul ? 18:02:02 10° S 18:05:55 37° WSW 18:09:46 10° NW visible
27 Jul ? 04:45:30 10° NNE 04:46:47 20° NNE 04:46:47 20° NNE visible
27 Jul ? 18:07:10 10° S 18:10:56 32° WSW 18:14:38 10° NW visible
28 Jul ? 04:50:29 10° NNE 04:51:55 21° NNE 04:51:55 21° NNE visible
28 Jul ? 18:12:20 10° SSW 18:15:55 28° WSW 18:19:29 10° NW visible
29 Jul ? 04:55:30 10° NNE 04:57:02 23° NNE 04:57:02 23° NNE visible
29 Jul ? 18:17:30 10° SSW 18:20:54 24° WSW 18:24:17 10° NW visible
30 Jul ? 05:00:31 10° N 05:02:10 24° N 05:02:10 24° N visible
30 Jul ? 18:22:43 10° SSW 18:25:54 21° WSW 18:29:03 10° WNW visible
31 Jul ? 05:05:34 10° N 05:07:18 24° N 05:07:18 24° N visible
31 Jul ? 18:27:57 10° SSW 18:30:52 18° WSW 18:33:46 10° WNW visible
01 Aug ? 05:10:38 10° N 05:12:26 24° NNW 05:12:26 24° NNW visible
01 Aug ? 18:33:15 10° SSW 18:35:51 16° WSW 18:38:25 10° WNW visible
02 Aug ? 05:15:44 10° N 05:17:34 24° NNW 05:17:34 24° NNW visible
02 Aug ? 18:38:37 10° SW 18:40:49 14° WSW 18:42:59 10° W visible
03 Aug ? 05:20:51 10° NNW 05:22:43 24° NNW 05:22:43 24° NNW visible
03 Aug ? 18:44:07 10° SW 18:45:46 12° WSW 18:47:26 10° W visible
04 Aug ? 05:26:00 10° NNW 05:27:52 23° NW 05:27:52 23° NW visible
04 Aug ? 18:50:00 10° WSW 18:50:44 10° WSW 18:51:29 10° WSW visible
